Weather History for Kimball, NE

Change the Weather History Date:

Thursday, March 28, 2013

  Actual Average (KSNY) Record (KSNY)
Temperature  
Mean Temperature 49 °F 42 °F  
Max Temperature 65 °F 56 °F 83 °F (1963)
Min Temperature 33 °F 28 °F 1 °F (1975)
Degree Days  
Heating Degree Days 16 23  
Month to date heating degree days 736  
Since 1 July heating degree days 5318  
Cooling Degree Days 0 0  
Month to date cooling degree days 0  
Year to date cooling degree days 0  
Moisture  
Dew Point 26 °F    
Average Humidity 51    
Maximum Humidity 90    
Minimum Humidity 16    
Precipitation  
Precipitation 0.00 in 0.05 in 0.59 in (1980)
Month to date precipitation 0.95  
Year to date precipitation 1.47  
Sea Level Pressure  
Sea Level Pressure 30.05 in    
Wind  
Wind Speed 10 mph (WNW)    
Max Wind Speed 16 mph    
Max Gust Speed 23 mph    
Visibility 10 miles    
Events      
T = Trace of Precipitation, MM = Missing Value Source: NWS Daily Summary

Daily Weather History Graph

Daily Weather History Graph

Search for Another Location

Airport:

Trip Planner

Search our weather history database for the weather conditions in past years. The results will help you decide how hot, cold, wet, or windy it might be!

Date:

Astronomy

Mar. 28, 2013 Rise Set
Actual Time 7:44 AM CDT 8:15 PM CDT
Civil Twilight 7:16 AM CDT 8:43 PM CDT
Nautical Twilight 6:43 AM CDT 9:16 PM CDT
Astronomical Twilight 6:10 AM CDT 9:49 PM CDT
Moon 10:11 PM CDT (3/28) 8:12 AM CDT (3/28)
Length of Visible Light 13h 27m
Length of Day
12h 31m
Full, 98% of the Moon is Illuminated
Mar 28
Full
Apr 2
Last Quarter
Apr 10
New
Apr 18
First Quarter
Apr 25
Full

Hourly Weather History & Observations

Time (CDT) Temp. Windchill Dew Point Humidity Pressure Visibility Wind Dir Wind Speed Gust Speed Precip Events Conditions
12:15 AM 36.5 °F 31.0 °F 32.0 °F 84% 30.08 in 10.0 mi SSW 6.9 mph - N/A   Mostly Cloudy
12:35 AM 37.8 °F 29.8 °F 32.0 °F 80% 30.07 in 10.0 mi South 12.7 mph - N/A   Mostly Cloudy
12:55 AM 37.2 °F 29.6 °F 32.0 °F 81% 30.06 in 10.0 mi SSW 11.5 mph - N/A   Mostly Cloudy
1:15 AM 37.8 °F 29.8 °F 32.0 °F 80% 30.06 in 10.0 mi SSW 12.7 mph - N/A   Overcast
1:35 AM 37.8 °F 30.2 °F 31.8 °F 79% 30.06 in 10.0 mi SSW 11.5 mph - N/A   Overcast
1:55 AM 36.5 °F 29.2 °F 31.1 °F 81% 30.06 in 10.0 mi SSW 10.4 mph - N/A   Mostly Cloudy
2:15 AM 35.8 °F 28.3 °F 30.9 °F 82% 30.05 in 10.0 mi SSW 10.4 mph - N/A   Scattered Clouds
2:35 AM 37.4 °F 29.8 °F 30.7 °F 77% 30.05 in 10.0 mi South 11.5 mph 17.3 mph N/A   Clear
2:55 AM 36.9 °F 28.7 °F 30.2 °F 77% 30.05 in 10.0 mi South 12.7 mph - N/A   Clear
3:15 AM 36.0 °F 27.5 °F 30.7 °F 81% 30.05 in 10.0 mi South 12.7 mph - N/A   Clear
3:35 AM 37.8 °F 29.0 °F 31.1 °F 77% 30.04 in 10.0 mi South 15.0 mph - N/A   Clear
3:55 AM 38.3 °F 29.7 °F 31.6 °F 77% 30.03 in 10.0 mi South 15.0 mph - N/A   Clear
4:15 AM 38.3 °F 30.1 °F 32.0 °F 78% 30.03 in 10.0 mi South 13.8 mph - N/A   Clear
4:35 AM 37.6 °F 30.0 °F 32.0 °F 80% 30.03 in 10.0 mi South 11.5 mph - N/A   Scattered Clouds
4:55 AM 36.7 °F 28.4 °F 31.8 °F 83% 30.02 in 10.0 mi South 12.7 mph - N/A   Scattered Clouds
5:15 AM 36.1 °F 28.2 °F 31.8 °F 84% 30.02 in 10.0 mi South 11.5 mph - N/A   Mostly Cloudy
5:35 AM 35.4 °F 27.8 °F 31.3 °F 85% 30.03 in 10.0 mi SSW 10.4 mph - N/A   Mostly Cloudy
5:55 AM 35.2 °F 29.5 °F 31.5 °F 86% 30.03 in 10.0 mi SW 6.9 mph - N/A   Mostly Cloudy
6:15 AM 34.0 °F 27.2 °F 31.1 °F 89% 30.03 in 10.0 mi SW 8.1 mph - N/A   Overcast
6:35 AM 33.6 °F 26.8 °F 30.9 °F 90% 30.03 in 10.0 mi WSW 8.1 mph - N/A   Overcast
6:55 AM 34.2 °F 27.5 °F 31.6 °F 90% 30.03 in 10.0 mi WSW 8.1 mph - N/A   Overcast
7:15 AM 34.2 °F 27.5 °F 31.6 °F 90% 30.03 in 10.0 mi WSW 8.1 mph - N/A   Overcast
7:35 AM 34.3 °F 28.4 °F 31.8 °F 90% 30.03 in 10.0 mi WSW 6.9 mph - N/A   Mostly Cloudy
7:55 AM 34.3 °F 29.2 °F 31.8 °F 90% 30.04 in 10.0 mi SW 5.8 mph - N/A   Mostly Cloudy
8:15 AM 34.9 °F 29.0 °F 32.0 °F 89% 30.04 in 7.0 mi SW 6.9 mph - N/A   Mostly Cloudy
8:35 AM 34.5 °F 28.6 °F 32.0 °F 90% 30.05 in 7.0 mi West 6.9 mph - N/A   Scattered Clouds
8:55 AM 35.1 °F 30.1 °F 32.0 °F 89% 30.05 in 10.0 mi West 5.8 mph - N/A   Clear
9:15 AM 39.6 °F 34.0 °F 32.9 °F 77% 30.05 in 10.0 mi WNW 8.1 mph - N/A   Clear
9:35 AM 44.4 °F 39.0 °F 32.9 °F 64% 30.05 in 10.0 mi West 10.4 mph - N/A   Clear
9:55 AM 48.9 °F - 32.0 °F 52% 30.05 in 10.0 mi WNW 11.5 mph - N/A   Clear
10:15 AM 50.9 °F - 31.3 °F 47% 30.06 in 10.0 mi NW 9.2 mph - N/A   Clear
10:35 AM 52.3 °F - 31.6 °F 45% 30.06 in 10.0 mi NW 11.5 mph - N/A   Clear
10:55 AM 55.0 °F - 30.2 °F 39% 30.06 in 10.0 mi NW 9.2 mph - N/A   Clear
11:15 AM 57.4 °F - 24.4 °F 28% 30.06 in 10.0 mi NNW 11.5 mph - N/A   Clear
11:35 AM 58.1 °F - 24.4 °F 27% 30.07 in 10.0 mi North 11.5 mph - N/A   Clear
11:55 AM 59.9 °F - 24.6 °F 26% 30.07 in 10.0 mi North 13.8 mph 18.4 mph N/A   Clear
12:15 PM 60.4 °F - 23.5 °F 24% 30.07 in 10.0 mi North 10.4 mph - N/A   Clear
12:35 PM 61.2 °F - 22.5 °F 23% 30.07 in 10.0 mi North 8.1 mph - N/A   Clear
12:55 PM 61.7 °F - 21.9 °F 22% 30.07 in 10.0 mi NW 8.1 mph - N/A   Clear
1:15 PM 62.6 °F - 22.1 °F 21% 30.06 in 10.0 mi North 11.5 mph 16.1 mph N/A   Clear
1:35 PM 62.1 °F - 20.5 °F 20% 30.06 in 10.0 mi North 9.2 mph - N/A   Clear
1:55 PM 63.3 °F - 19.9 °F 19% 30.06 in 10.0 mi NNW 5.8 mph 11.5 mph N/A   Clear
2:15 PM 63.1 °F - 19.8 °F 19% 30.05 in 10.0 mi NNW 9.2 mph 21.9 mph N/A   Clear
2:35 PM 62.6 °F - 19.9 °F 19% 30.05 in 10.0 mi NNW 8.1 mph - N/A   Clear
2:55 PM 63.7 °F - 20.5 °F 19% 30.05 in 10.0 mi NNW 10.4 mph 19.6 mph N/A   Clear
3:15 PM 63.7 °F - 20.1 °F 19% 30.04 in 10.0 mi NW 9.2 mph 17.3 mph N/A   Scattered Clouds
3:35 PM 63.5 °F - 20.1 °F 19% 30.04 in 10.0 mi WNW 8.1 mph 17.3 mph N/A   Scattered Clouds
3:55 PM 63.3 °F - 19.6 °F 19% 30.04 in 10.0 mi NW 16.1 mph 23.0 mph N/A   Scattered Clouds
4:15 PM 64.2 °F - 18.9 °F 18% 30.03 in 10.0 mi NNE 9.2 mph 19.6 mph N/A   Scattered Clouds
4:35 PM 65.5 °F - 18.0 °F 16% 30.03 in 10.0 mi WNW 11.5 mph 21.9 mph N/A   Clear
4:55 PM 64.8 °F - 18.5 °F 17% 30.02 in 10.0 mi North 15.0 mph 20.7 mph N/A   Clear
5:15 PM 64.8 °F - 17.4 °F 16% 30.02 in 10.0 mi North 8.1 mph 17.3 mph N/A   Clear
5:35 PM 64.4 °F - 17.4 °F 16% 30.02 in 10.0 mi NNE 13.8 mph - N/A   Clear
5:55 PM 64.0 °F - 18.1 °F 17% 30.03 in 10.0 mi NNE 6.9 mph 18.4 mph N/A   Clear
6:15 PM 63.9 °F - 17.8 °F 17% 30.03 in 10.0 mi NNE 11.5 mph - N/A   Clear
6:35 PM 63.1 °F - 17.1 °F 17% 30.04 in 10.0 mi NNE 8.1 mph - N/A   Clear
6:55 PM 62.6 °F - 16.2 °F 17% 30.04 in 10.0 mi NNE 6.9 mph - N/A   Clear
7:15 PM 58.8 °F - 18.0 °F 20% 30.04 in 10.0 mi NNE 6.9 mph - N/A   Clear
7:35 PM 57.2 °F - 19.4 °F 23% 30.05 in 10.0 mi North 4.6 mph - N/A   Scattered Clouds
7:55 PM 56.3 °F - 20.3 °F 25% 30.06 in 10.0 mi NE 3.5 mph - N/A   Overcast
8:15 PM 53.2 °F - 21.0 °F 28% 30.06 in 10.0 mi NE 4.6 mph - N/A   Mostly Cloudy
8:35 PM 48.7 °F - 20.8 °F 33% 30.07 in 10.0 mi East 5.8 mph - N/A   Scattered Clouds
8:55 PM 47.1 °F - 20.1 °F 34% 30.08 in 10.0 mi ENE 3.5 mph - N/A   Clear
9:15 PM 49.5 °F - 19.4 °F 31% 30.08 in 10.0 mi ENE 3.5 mph - N/A   Clear
9:35 PM 48.2 °F - 20.1 °F 33% 30.08 in 10.0 mi Calm Calm - N/A   Clear
9:55 PM 43.2 °F 41.5 °F 23.0 °F 45% 30.09 in 10.0 mi SSW 3.5 mph - N/A   Clear
10:15 PM 43.3 °F - 22.6 °F 44% 30.09 in 10.0 mi Calm Calm - N/A   Clear
10:35 PM 41.7 °F 38.0 °F 23.9 °F 49% 30.09 in 10.0 mi WSW 5.8 mph - N/A   Clear
10:55 PM 41.0 °F 37.1 °F 24.4 °F 52% 30.09 in 10.0 mi West 5.8 mph - N/A   Clear
11:15 PM 38.5 °F 33.4 °F 25.5 °F 60% 30.10 in 10.0 mi SW 6.9 mph - N/A   Clear
11:35 PM 38.8 °F 36.5 °F 25.0 °F 58% 30.10 in 10.0 mi West 3.5 mph - N/A   Clear
11:55 PM 40.5 °F 38.4 °F 25.2 °F 54% 30.10 in 10.0 mi West 3.5 mph - N/A   Clear